Weather History for Meadville, PA

Change the Weather History Date:

Tuesday, April 9, 2013

  Actual Average Record
Temperature  
Mean Temperature 58 °F -  
Max Temperature 73 °F 51 °F 79 °F (1991)
Min Temperature 44 °F 29 °F 11 °F (1958)
Degree Days  
Heating Degree Days 6    
Growing Degree Days 8 (Base 50)    
Moisture  
Dew Point 45 °F    
Average Humidity 68    
Maximum Humidity 87    
Minimum Humidity 42    
Precipitation  
Precipitation 0.00 in - - ()
Sea Level Pressure  
Sea Level Pressure 30.01 in    
Wind  
Wind Speed 7 mph (WSW)    
Max Wind Speed 12 mph    
Max Gust Speed 21 mph    
Visibility 7 miles    
Events      
Averages and records for this station are not official NWS values.
T = Trace of Precipitation, MM = Missing Value Source: NWS Daily Summary

Daily Weather History Graph

Daily Weather History Graph

Search for Another Location

Airport:

Trip Planner

Search our weather history database for the weather conditions in past years. The results will help you decide how hot, cold, wet, or windy it might be!

Date:

Astronomy

Apr. 09, 2013 Rise Set
Actual Time 6:50 AM EDT 7:55 PM EDT
Civil Twilight 6:21 AM EDT 8:23 PM EDT
Nautical Twilight 5:47 AM EDT 8:57 PM EDT
Astronomical Twilight 5:12 AM EDT 9:33 PM EDT
Moon 6:12 AM EDT (4/9) 7:29 PM EDT (4/9)
Length of Visible Light 14h 01m
Length of Day
13h 05m
Waning Crescent, 1% of the Moon is Illuminated
Apr 9
Waning Crescent
Apr 10
New
Apr 18
First Quarter
Apr 25
Full
May 2
Last Quarter

Hourly Weather History & Observations

Time (EDT) Temp. Windchill Dew Point Humidity Pressure Visibility Wind Dir Wind Speed Gust Speed Precip Events Conditions
12:53 AM 60.1 °F - 52.0 °F 75% 29.93 in 10.0 mi WSW 11.5 mph 20.7 mph N/A   Partly Cloudy
1:53 AM 59.0 °F - 48.9 °F 69% 29.95 in 10.0 mi West 10.4 mph 19.6 mph N/A   Overcast
2:53 AM 54.0 °F - 43.0 °F 66% 29.98 in 10.0 mi NW 11.5 mph 17.3 mph N/A   Partly Cloudy
3:53 AM 46.9 °F - 41.0 °F 80% 30.01 in 8.0 mi West 5.8 mph - N/A   Clear
4:30 AM 46.4 °F 41.9 °F 42.8 °F 87% 30.04 in 7.0 mi WNW 9.2 mph - N/A   Mostly Cloudy
4:53 AM 46.9 °F - 42.1 °F 83% 30.04 in 6.0 mi NW 4.6 mph - N/A   Haze
5:53 AM 46.0 °F 43.1 °F 42.1 °F 86% 30.06 in 3.0 mi NW 5.8 mph - N/A   Overcast
6:53 AM 45.0 °F 43.5 °F 41.0 °F 86% 30.09 in 4.0 mi NW 3.5 mph - N/A   Overcast
7:15 AM 44.6 °F - 41.0 °F 87% 30.10 in 2.5 mi Calm Calm - N/A   Overcast
7:29 AM 44.6 °F - 41.0 °F 87% 30.10 in 3.0 mi Calm Calm - N/A   Overcast
7:40 AM 44.6 °F 42.2 °F 41.0 °F 87% 30.10 in 2.5 mi WNW 4.6 mph - N/A   Overcast
7:53 AM 45.0 °F 43.5 °F 41.0 °F 86% 30.11 in 2.5 mi NW 3.5 mph - N/A   Overcast
8:40 AM 44.6 °F - 41.0 °F 87% 30.10 in 3.0 mi Calm Calm - N/A   Overcast
8:53 AM 46.0 °F - 41.0 °F 83% 30.11 in 3.0 mi Calm Calm - N/A   Haze
9:22 AM 48.2 °F - 41.0 °F 76% 30.09 in 4.0 mi NNE 5.8 mph - N/A   Haze
9:53 AM 48.0 °F - 41.0 °F 77% 30.10 in 5.0 mi Calm Calm - N/A   Haze
10:53 AM 51.1 °F - 43.0 °F 74% 30.09 in 6.0 mi Calm Calm - N/A   Haze
11:53 AM 57.9 °F - 43.0 °F 58% 30.08 in 10.0 mi Variable 3.5 mph - N/A   Clear
12:53 PM 63.0 °F - 44.1 °F 50% 30.05 in 10.0 mi South 6.9 mph - N/A   Clear
1:53 PM 68.0 °F - 45.0 °F 43% 30.03 in 10.0 mi SSW 6.9 mph - N/A   Clear
2:53 PM 68.0 °F - 46.9 °F 47% 30.00 in 10.0 mi Variable 5.8 mph - N/A   Mostly Cloudy
3:53 PM 69.1 °F - 48.0 °F 47% 29.98 in 10.0 mi South 8.1 mph - N/A   Overcast
4:53 PM 73.0 °F - 48.9 °F 42% 29.94 in 10.0 mi South 6.9 mph - N/A   Mostly Cloudy
5:53 PM 72.0 °F - 51.1 °F 48% 29.91 in 10.0 mi South 9.2 mph 17.3 mph N/A   Clear
6:53 PM 73.0 °F - 52.0 °F 48% 29.89 in 10.0 mi SSW 8.1 mph - N/A   Partly Cloudy
7:53 PM 71.1 °F - 52.0 °F 51% 29.87 in 10.0 mi South 6.9 mph - N/A   Mostly Cloudy
8:53 PM 71.1 °F - 51.1 °F 49% 29.87 in 10.0 mi SSW 9.2 mph - N/A   Overcast
9:53 PM 73.0 °F - 51.1 °F 46% 29.88 in 10.0 mi SW 11.5 mph 20.7 mph N/A   Scattered Clouds
10:53 PM 57.0 °F - 45.0 °F 64% 29.91 in 10.0 mi North 5.8 mph - N/A   Mostly Cloudy
11:53 PM 55.0 °F - 45.0 °F 69% 29.92 in 10.0 mi Calm Calm - N/A   Overcast